Simultaneous Nadir Overpasses (SNOs) Predictions

Prediction of SNOs between GOES-16 and NOAA-19 Satellite Orbit:

Table of predicted SNOs for the next 14.0 days since TLE Epoch: 4/13/2024
Index Date Time (GOES-16) GOES-16 Lat,Lon NOAA-19 Lat,Lon Distance(km) Time Diff (sec)
1 04/15/2024 14:19:59 0.02, -75.22 0.59, -77.75 288.70 80
2 04/16/2024 14:10:25 0.01, -75.23 -0.12, -74.78 51.49 80
3 04/17/2024 13:58:11 0.01, -75.24 -0.77, -71.80 391.75 80
4 04/19/2024 02:30:11 -0.01, -75.25 -0.99, -79.49 484.02 80
5 04/20/2024 02:17:58 -0.01, -75.26 -0.28, -76.52 143.15 80
6 04/21/2024 02:03:03 -0.01, -75.27 0.37, -73.53 197.95 80
7 04/23/2024 14:22:31 0.01, -75.32 0.63, -78.18 325.13 80
8 04/24/2024 14:12:57 0.00, -75.34 -0.03, -75.20 16.34 80
9 04/25/2024 14:00:42 0.00, -75.36 -0.69, -72.22 357.81 80
